User: anonymous   Login
Location: Brachstadt
(48.6975°N, 10.6755°E)
Time: 10:34:58
(UTC+00:00)
Language:

Cosmos 372 Rocket - Orbit

View from above orbital plane
View from above orbital plane
View from above satellite
View from above satellite

Ground track
Ground track

The orbit data is extracted from the following two-line orbital elements,

1  4589U 70086B   20336.75134713  .00000152  00000-0  54807-4 0  9998
2  4589  74.0584 140.8758 0020157  35.1127 325.1353 14.41611401629364
Epoch (UTC): 01 December 2020 18:01:56
Eccentricity: 0.0020157
inclination: 74.0584°
perigee height: 739 km
apogee height: 767 km
right ascension of ascending node: 140.8758°
argument of perigee: 35.1127°
revolutions per day: 14.41611401
mean anomaly at epoch: 325.1353°
orbit number at epoch: 62936

The dashed part of the orbit path shows where the satellite is in the earth's shadow,  

DLR